TimeEST,TemperatureF,Dew PointF,Humidity,Sea Level PressureIn,VisibilityMPH,Wind Direction,Wind SpeedMPH,Gust SpeedMPH,PrecipitationIn,Events,Conditions,WindDirDegrees,DateUTC
12:53 AM,10.9,8.1,88,29.82,10.0,East,5.8,-,N/A,,Clear,80,2013-01-22 05:53:00
1:31 AM,12.2,8.6,85,29.79,10.0,Calm,Calm,-,N/A,,Mostly Cloudy,0,2013-01-22 06:31:00
1:53 AM,12.0,9.0,88,29.84,10.0,Calm,Calm,-,N/A,,Overcast,0,2013-01-22 06:53:00
2:12 AM,12.2,8.6,85,29.80,2.5,Calm,Calm,-,0.00,Snow,Light Snow,0,2013-01-22 07:12:00
2:21 AM,10.4,6.8,85,29.80,4.0,Calm,Calm,-,0.00,Snow,Light Snow,0,2013-01-22 07:21:00
2:53 AM,10.0,7.0,87,29.85,10.0,Calm,Calm,-,0.00,,Overcast,0,2013-01-22 07:53:00
3:06 AM,10.4,6.8,85,29.81,10.0,East,3.5,-,N/A,,Overcast,100,2013-01-22 08:06:00
3:53 AM,12.0,7.0,80,29.86,3.0,ENE,5.8,-,0.00,Snow,Light Snow,60,2013-01-22 08:53:00
4:02 AM,10.4,6.8,85,29.83,1.8,ENE,4.6,-,0.00,Snow,Light Snow,60,2013-01-22 09:02:00
4:27 AM,10.4,6.8,85,29.83,2.0,Calm,Calm,-,0.00,Snow,Light Snow,0,2013-01-22 09:27:00
4:37 AM,10.4,6.8,85,29.84,5.0,Calm,Calm,-,0.00,Snow,Light Snow,0,2013-01-22 09:37:00
4:49 AM,8.6,6.8,92,29.84,9.0,East,3.5,-,0.00,,Mostly Cloudy,80,2013-01-22 09:49:00
4:53 AM,9.0,6.1,88,29.88,10.0,ENE,3.5,-,0.00,,Mostly Cloudy,70,2013-01-22 09:53:00
5:32 AM,6.8,3.2,85,29.86,9.0,East,4.6,-,N/A,,Mostly Cloudy,90,2013-01-22 10:32:00
5:53 AM,6.1,3.0,87,29.90,9.0,East,3.5,-,N/A,,Mostly Cloudy,80,2013-01-22 10:53:00
6:37 AM,3.2,1.4,92,29.88,10.0,Calm,Calm,-,N/A,,Mostly Cloudy,0,2013-01-22 11:37:00
6:49 AM,1.4,-2.2,85,29.88,10.0,Calm,Calm,-,N/A,,Overcast,0,2013-01-22 11:49:00
6:53 AM,1.9,-2.9,80,29.93,10.0,Calm,Calm,-,N/A,,Overcast,0,2013-01-22 11:53:00
7:20 AM,1.4,-2.2,85,29.89,10.0,Calm,Calm,-,N/A,,Mostly Cloudy,0,2013-01-22 12:20:00
7:53 AM,1.9,-2.0,83,29.94,10.0,Calm,Calm,-,N/A,,Partly Cloudy,0,2013-01-22 12:53:00
8:49 AM,3.2,-0.4,85,29.90,1.5,Calm,Calm,-,N/A,,Clear,0,2013-01-22 13:49:00
8:53 AM,3.9,-0.0,84,29.95,0.5,SSW,3.5,-,N/A,Fog,Light Freezing Fog,210,2013-01-22 13:53:00
9:01 AM,6.8,1.4,79,29.91,2.0,Calm,Calm,-,N/A,,Clear,0,2013-01-22 14:01:00
9:08 AM,6.8,5.0,92,29.91,5.0,South,3.5,-,N/A,,Clear,170,2013-01-22 14:08:00
9:53 AM,15.1,5.0,64,29.95,10.0,West,8.1,-,N/A,,Clear,270,2013-01-22 14:53:00
10:53 AM,17.1,1.9,52,29.96,10.0,West,11.5,19.6,N/A,,Clear,280,2013-01-22 15:53:00
11:53 AM,18.0,1.0,48,29.94,10.0,West,10.4,20.7,N/A,,Clear,270,2013-01-22 16:53:00
12:53 PM,17.1,-2.0,43,29.94,10.0,West,12.7,25.3,N/A,,Clear,270,2013-01-22 17:53:00
1:53 PM,18.0,-0.9,44,29.96,10.0,WNW,12.7,21.9,N/A,,Clear,290,2013-01-22 18:53:00
2:53 PM,17.1,-4.0,39,29.98,10.0,West,5.8,16.1,N/A,,Mostly Cloudy,280,2013-01-22 19:53:00
3:53 PM,16.0,-2.9,43,30.00,10.0,WNW,10.4,16.1,0.00,,Overcast,290,2013-01-22 20:53:00
4:53 PM,14.0,-5.1,43,30.04,10.0,NNW,8.1,-,N/A,,Overcast,330,2013-01-22 21:53:00
5:53 PM,10.9,-7.1,44,30.07,10.0,West,4.6,-,N/A,,Clear,280,2013-01-22 22:53:00
6:53 PM,10.0,-9.9,40,30.10,10.0,West,4.6,-,N/A,,Clear,260,2013-01-22 23:53:00
7:53 PM,9.0,-9.0,44,30.11,10.0,West,3.5,-,N/A,,Mostly Cloudy,270,2013-01-23 00:53:00
8:53 PM,8.1,-7.1,50,30.11,10.0,West,4.6,-,N/A,,Overcast,260,2013-01-23 01:53:00
9:53 PM,8.1,-8.0,48,30.12,10.0,West,4.6,-,N/A,,Overcast,260,2013-01-23 02:53:00
10:53 PM,7.0,-7.1,53,30.14,10.0,SW,4.6,-,N/A,,Overcast,220,2013-01-23 03:53:00
11:53 PM,7.0,-9.9,46,30.13,10.0,West,9.2,-,N/A,,Overcast,270,2013-01-23 04:53:00